Weather reports worldwide

Advertisment
Jersey Airport, United Kingdom (3895): temperature & dewpoint: 14.06.2019 13:00:00 - 20.06.2019 13:00:00 (BST)Jersey Airport, United Kingdom (3895): temperature -20cm & temperature -100cm: 14.06.2019 13:00:00 - 20.06.2019 13:00:00 (BST)Jersey Airport, United Kingdom (3895): wind speed: 14.06.2019 13:00:00 - 20.06.2019 13:00:00 (BST)Jersey Airport, United Kingdom (3895): wind direction: 14.06.2019 13:00:00 - 20.06.2019 13:00:00 (BST)Jersey Airport, United Kingdom (3895): reduced air pressure: 14.06.2019 13:00:00 - 20.06.2019 13:00:00 (BST)Jersey Airport, United Kingdom (3895): visibility: 14.06.2019 13:00:00 - 20.06.2019 13:00:00 (BST)Jersey Airport, United Kingdom (3895): sunshine duration: 14.06.2019 13:00:00 - 20.06.2019 13:00:00 (BST)Jersey Airport, United Kingdom (3895): precipitation: 14.06.2019 13:00:00 - 20.06.2019 13:00:00 (BST)
Date & Time tt [°C] td [°C] tt -20cm [°C] tt -100cm [°C] ff [km/h] ff [kn] dd ppp [hPa] vv [km] sd [min] rr [mm]
20.06.2019 13:00:00 16,1 12,9 - - 22 12 W 1017,0 24 54 0,0
20.06.2019 12:00:00 15,3 12,5 - - 26 14 W 1016,8 10 42 0,0
20.06.2019 11:00:00 15,4 13,2 - - 26 14 W 1016,4 10 42 0,0
20.06.2019 10:00:00 15,1 12,2 17,0 15,0 26 14 W 1016,1 10 48 0,0
20.06.2019 09:00:00 13,7 11,5 - - 22 12 W 1015,9 10 24 0,0
20.06.2019 08:00:00 13,3 11,7 - - 21 11 W 1015,6 10 0 0,0
20.06.2019 07:00:00 12,8 11,3 - - 18 10 W 1015,1 10 0 0,0
20.06.2019 06:00:00 12,6 11,3 - - 18 10 W 1014,7 10 0 0,0
20.06.2019 05:00:00 12,7 11,3 - - 18 10 WNW 1014,4 10 0 0,0
20.06.2019 04:00:00 12,6 11,2 - - 18 10 WNW 1014,1 10 0 0,0
20.06.2019 03:00:00 12,5 11,5 - - 18 10 W 1013,9 10 0 0,0
20.06.2019 02:00:00 12,8 12,3 - - 18 10 WNW 1013,8 10 0 0,0
20.06.2019 01:00:00 12,9 12,4 - - 18 10 WNW 1013,6 10 - 0,0
20.06.2019 00:00:00 13,2 12,8 - - 18 10 WNW 1013,3 10 0 0,0
19.06.2019 23:00:00 13,3 13,0 - - 22 12 WNW 1013,0 5 0 0,0
19.06.2019 22:00:00 13,4 12,8 - - 21 11 W 1012,7 10 0 0,0
19.06.2019 21:00:00 13,5 12,3 - - 22 12 W 1011,9 10 12 0,0
19.06.2019 20:00:00 13,7 12,8 - - 28 15 W 1011,7 10 0 0,0
19.06.2019 19:00:00 14,0 12,9 - - 28 15 W 1011,4 10 0 0,0
19.06.2019 18:00:00 14,2 13,2 - - 22 12 W 1011,1 10 0 0,0
19.06.2019 17:00:00 14,5 13,8 - - 22 12 W 1010,9 10 0 0,0
19.06.2019 16:00:00 14,7 14,2 - - 21 11 W 1010,7 4,1 0 0,0
19.06.2019 15:00:00 14,5 13,9 - - 18 10 W 1010,6 3,3 0 0,0
19.06.2019 14:00:00 14,9 14,3 - - 21 11 W 1010,3 1,3 0 0,0
19.06.2019 13:00:00 15,1 14,5 - - 13 7 W 1010,0 2,6 0 0,0
19.06.2019 12:00:00 15,0 14,5 - - 11 6 W 1009,5 3,3 0 0,0
19.06.2019 11:00:00 14,6 14,4 - - 15 8 W 1009,2 1,5 0 0,0
19.06.2019 10:00:00 14,4 14,2 17,0 14,9 13 7 W 1008,8 0,7 0 0,0
19.06.2019 09:00:00 15,3 14,8 - - 9 5 W 1008,6 1,6 0 0,0
19.06.2019 08:00:00 15,7 15,6 - - 2 1 - 1008,0 6 0 0,0
19.06.2019 07:00:00 14,5 14,3 - - 0 0 N 1007,9 6 0 0,2
19.06.2019 06:00:00 14,1 13,9 - - 8 4 NE 1007,8 0,9 0 0,4
19.06.2019 05:00:00 14,1 13,8 - - 5 3 NNW 1007,7 2,1 0 0,0
19.06.2019 04:00:00 14,4 13,9 - - 9 5 NNW 1007,6 7 0 0,2
19.06.2019 03:00:00 14,6 13,7 - - 5 3 SSW 1008,0 10 0 0,0
19.06.2019 02:00:00 14,6 13,7 - - 9 5 N 1007,1 10 0 0,0
19.06.2019 01:00:00 14,2 13,5 - - 13 7 NNE 1007,4 10 - 0,0
19.06.2019 00:00:00 14,2 13,4 - - 13 7 N 1008,7 9 0 0,0
18.06.2019 23:00:00 14,8 13,4 - - 9 5 NW 1008,6 10 0 0,0
18.06.2019 22:00:00 14,8 13,6 - - 22 12 NNE 1008,9 10 0 0,0
18.06.2019 21:00:00 16,0 13,9 - - 15 8 NNE 1009,0 10 0 0,0
18.06.2019 20:00:00 17,2 14,4 - - 15 8 NE 1009,1 10 24 0,0
18.06.2019 19:00:00 18,1 14,6 - - 16 9 NE 1009,2 10 0 0,0
18.06.2019 18:00:00 17,5 14,3 - - 16 9 NE 1009,7 10 36 0,0
18.06.2019 17:00:00 17,9 14,6 - - 18 10 NE 1010,0 10 18 0,0
18.06.2019 16:00:00 16,9 14,2 - - 15 8 ENE 1010,6 10 0 0,0
18.06.2019 15:00:00 15,7 13,7 - - 15 8 E 1010,7 10 0 0,0
18.06.2019 14:00:00 16,5 14,4 - - 22 12 ENE 1010,6 10 6 0,0
18.06.2019 13:00:00 15,8 15,0 - - 15 8 ENE 1011,9 10 0 1,2
18.06.2019 12:00:00 14,5 13,1 - - 13 7 ESE 1013,1 11 0 3,0
18.06.2019 11:00:00 15,4 11,3 - - 26 14 ENE 1012,1 10 0 0,0
18.06.2019 10:00:00 16,1 11,1 17,2 14,7 29 16 ENE 1011,9 10 0 0,0
18.06.2019 09:00:00 14,0 10,8 - - 24 13 ENE 1012,9 10 0 0,0
18.06.2019 08:00:00 14,2 11,2 - - 22 12 NE 1013,5 10 0 0,0
18.06.2019 07:00:00 13,6 11,5 - - 13 7 NW 1015,2 10 0 0,4
18.06.2019 06:00:00 14,3 10,1 - - 21 11 E 1013,8 10 0 0,0
18.06.2019 05:00:00 14,0 9,5 - - 18 10 ENE 1014,4 50 0 0,0
18.06.2019 04:00:00 13,9 9,8 - - 21 11 ENE 1014,8 10 0 0,0
18.06.2019 03:00:00 13,5 10,2 - - 15 8 ENE 1015,2 45 0 0,0
18.06.2019 02:00:00 13,0 10,3 - - 21 11 E 1015,8 10 0 0,0
18.06.2019 01:00:00 12,5 10,2 - - 18 10 E 1016,4 10 - 0,0
18.06.2019 00:00:00 13,5 10,8 - - 15 8 E 1016,8 10 0 0,0
17.06.2019 23:00:00 14,7 10,6 - - 15 8 NE 1017,0 10 0 0,0
17.06.2019 22:00:00 14,4 10,2 - - 13 7 NE 1017,2 10 0 0,0
17.06.2019 21:00:00 15,2 9,8 - - 15 8 NNE 1016,9 45 36 0,0
17.06.2019 20:00:00 16,2 9,2 - - 13 7 NNE 1016,9 10 36 0,0
17.06.2019 19:00:00 17,8 10,1 - - 11 6 N 1017,0 22 48 0,0
17.06.2019 18:00:00 17,8 11,0 - - 11 6 NNE 1017,3 35 12 0,0
17.06.2019 17:00:00 18,8 11,2 - - 5 3 - 1017,6 10 42 0,0
17.06.2019 16:00:00 19,2 9,9 - - 8 4 WSW 1017,9 10 60 0,0
17.06.2019 15:00:00 19,4 10,0 - - 8 4 - 1018,3 10 60 0,0
17.06.2019 14:00:00 18,5 8,8 - - 8 4 S 1018,7 10 60 0,0
17.06.2019 13:00:00 17,4 9,7 - - 11 6 S 1019,0 45 60 0,0
17.06.2019 12:00:00 16,7 11,4 - - 9 5 S 1019,2 19 60 0,0
17.06.2019 11:00:00 16,4 12,4 - - 11 6 S 1019,4 35 60 0,0
17.06.2019 10:00:00 15,7 12,6 16,9 14,7 9 5 SW 1019,4 10 54 0,0
17.06.2019 09:00:00 14,9 12,0 - - 11 6 SW 1019,6 10 60 0,0
17.06.2019 08:00:00 14,1 12,3 - - 13 7 WSW 1019,7 10 60 0,0
17.06.2019 07:00:00 13,0 12,3 - - 13 7 SW 1019,5 10 54 0,0
17.06.2019 06:00:00 11,9 11,4 - - 15 8 SW 1019,5 10 0 0,0
17.06.2019 05:00:00 11,7 11,0 - - 15 8 SW 1019,4 14 0 0,0
17.06.2019 04:00:00 11,9 11,2 - - 13 7 SW 1019,5 10 0 0,0
17.06.2019 03:00:00 11,8 10,5 - - 15 8 SW 1019,6 19 0 0,0
17.06.2019 02:00:00 12,4 10,5 - - 15 8 SW 1019,7 10 0 0,0
17.06.2019 01:00:00 11,8 10,3 - - 5 3 S 1019,8 10 - 0,0
17.06.2019 00:00:00 13,1 10,3 - - 8 4 SW 1019,9 28 0 0,0
16.06.2019 23:00:00 13,4 10,9 - - 8 4 W 1020,1 10 0 0,0
16.06.2019 22:00:00 13,9 11,5 - - 9 5 W 1020,1 10 0 0,0
16.06.2019 21:00:00 14,8 12,6 - - 9 5 W 1019,6 22 0 0,0
16.06.2019 20:00:00 16,2 11,8 - - 18 10 SW 1019,4 40 0 0,0
16.06.2019 19:00:00 16,5 12,1 - - 18 10 SW 1019,4 10 0 0,0
16.06.2019 18:00:00 16,9 12,5 - - 11 6 S 1019,4 10 6 0,0
16.06.2019 17:00:00 17,3 12,5 - - 11 6 SSW 1019,4 45 12 0,0
16.06.2019 16:00:00 17,2 13,2 - - 15 8 SW 1019,6 10 0 0,0
16.06.2019 15:00:00 17,1 13,6 - - 18 10 WSW 1019,8 10 0 0,0
16.06.2019 14:00:00 16,1 12,3 - - 21 11 SW 1019,9 10 0 0,0
16.06.2019 13:00:00 16,5 12,6 - - 21 11 SSW 1019,7 10 0 0,0
16.06.2019 12:00:00 17,5 13,2 - - 22 12 SSW 1019,5 17 18 0,0
16.06.2019 11:00:00 16,8 13,0 - - 29 16 SW 1019,2 10 54 0,0
16.06.2019 10:00:00 15,8 13,4 16,7 14,7 24 13 SSW 1019,0 10 18 0,0
16.06.2019 09:00:00 15,4 13,8 - - 24 13 SSW 1018,7 10 0 0,0
16.06.2019 08:00:00 14,2 13,2 - - 22 12 S 1018,3 10 0 0,0
16.06.2019 07:00:00 13,9 13,1 - - 22 12 S 1017,8 10 0 0,0
16.06.2019 06:00:00 13,8 13,0 - - 21 11 SSW 1017,4 10 0 0,0
16.06.2019 05:00:00 13,6 12,8 - - 21 11 SSW 1017,2 10 0 0,0
16.06.2019 04:00:00 13,5 12,7 - - 18 10 SSW 1017,1 10 0 0,0
16.06.2019 03:00:00 13,4 12,3 - - 21 11 SSW 1017,1 10 0 0,0
16.06.2019 02:00:00 13,2 12,3 - - 21 11 SW 1017,2 10 0 0,0
16.06.2019 01:00:00 13,2 12,4 - - 21 11 SW 1017,1 10 - 0,0
16.06.2019 00:00:00 13,1 12,8 - - 18 10 SSW 1016,6 27 0 0,0
15.06.2019 23:00:00 12,9 12,7 - - 13 7 S 1016,4 10 0 0,0
15.06.2019 22:00:00 12,5 12,3 - - 9 5 SSW 1016,0 10 0 0,2
15.06.2019 21:00:00 12,4 11,9 - - 11 6 WSW 1015,6 3,0 0 1,4
15.06.2019 20:00:00 13,1 11,7 - - 11 6 WSW 1015,3 9 0 0,4
15.06.2019 19:00:00 14,0 12,0 - - 9 5 SW 1015,0 10 0 0,0
15.06.2019 18:00:00 15,2 13,5 - - 9 5 WSW 1014,7 45 42 0,0
15.06.2019 17:00:00 15,6 14,7 - - 24 13 WSW 1014,3 10 24 1,2
15.06.2019 16:00:00 14,9 14,3 - - 21 11 SSW 1014,3 10 0 1,4
15.06.2019 15:00:00 14,8 13,8 - - 24 13 S 1013,9 30 0 1,2
15.06.2019 14:00:00 13,8 13,1 - - 16 9 SW 1014,2 10 0 1,0
15.06.2019 13:00:00 14,6 12,4 - - 26 14 S 1014,2 10 0 0,2
15.06.2019 12:00:00 15,4 11,7 - - 29 16 S 1013,9 10 0 0,0
15.06.2019 11:00:00 15,1 11,9 - - 28 15 SSW 1013,8 10 0 0,0
15.06.2019 10:00:00 13,9 11,4 16,7 14,7 26 14 SSW 1013,8 10 0 0,0
15.06.2019 09:00:00 14,3 11,1 - - 26 14 S 1013,5 10 12 0,0
15.06.2019 08:00:00 14,3 11,2 - - 26 14 SSW 1013,1 30 36 0,0
15.06.2019 07:00:00 13,7 11,2 - - 22 12 SSW 1012,9 10 24 0,0
15.06.2019 06:00:00 12,7 10,8 - - 18 10 SSW 1012,8 40 0 0,0
15.06.2019 05:00:00 13,0 11,4 - - 18 10 SSW 1012,8 10 0 0,0
15.06.2019 04:00:00 13,1 11,1 - - 15 8 S 1012,4 10 0 0,0
15.06.2019 03:00:00 13,4 11,4 - - 16 9 SSW 1012,8 10 0 0,0
15.06.2019 02:00:00 13,4 11,0 - - 16 9 SW 1012,8 10 0 0,0
15.06.2019 01:00:00 13,3 12,2 - - 11 6 SSE 1013,0 10 - 0,0
15.06.2019 00:00:00 13,2 11,4 - - 11 6 SSE 1013,0 10 0 0,0
14.06.2019 23:00:00 13,1 10,3 - - 5 3 S 1013,0 10 0 0,0
14.06.2019 22:00:00 13,3 10,1 - - 5 3 SSE 1013,1 10 0 0,0
14.06.2019 21:00:00 13,9 10,0 - - 5 3 WNW 1012,3 10 36 0,0
14.06.2019 20:00:00 14,7 10,0 - - 8 4 WNW 1012,2 26 0 0,0
14.06.2019 19:00:00 14,7 10,5 - - 8 4 NW 1012,3 10 0 0,0
14.06.2019 18:00:00 14,4 10,2 - - 13 7 WNW 1012,3 21 0 0,0
14.06.2019 17:00:00 15,6 11,4 - - 9 5 WNW 1012,1 10 6 0,0
14.06.2019 16:00:00 16,6 10,8 - - 9 5 W 1012,0 10 12 0,0
14.06.2019 15:00:00 16,1 11,7 - - 11 6 WSW 1012,2 10 0 0,0
14.06.2019 14:00:00 15,8 11,4 - - 15 8 S 1012,4 10 24 0,0
14.06.2019 13:00:00 16,5 11,4 - - 18 10 SW 1012,2 10 54 0,0

tt = temperature
td = dewpoint
tt -20cm = temperature -20cm
tt -100cm = temperature -100cm
ff = wind speed
dd = wind direction
ppp = reduced air pressure
vv = visibility
sd = sunshine duration
rr = precipitation

Next stations